KA5FVT Weather Reports


time (UTC)temp
C
wind
direction
speed
KPH
gust
KPH
rain 1hr
cm
rain 24hr
cm
rain mn
cm
humidity
%
barometer
mb
20260505212426 28 281 1.6 3.2 0.00 0.00 0.00 75 1006.9
20260505211927 28 281 1.6 8.0 0.00 0.00 0.00 74 1006.9
20260505211426 28 9 3.2 3.2 0.00 0.00 0.00 74 1007.1
20260505210926 28 182 1.6 1.6 0.00 0.00 0.00 74 1007.1
20260505210426 28 182 1.6 3.2 0.00 0.00 0.00 74 1007.1
20260505205926 28 182 0.0 3.2 0.00 0.00 0.00 75 1007.1
20260505205427 28 182 0.0 3.2 0.00 0.00 0.00 74 1007.1
20260505204927 28 182 1.6 3.2 0.00 0.00 0.00 74 1007.1
20260505204429 28 182 1.6 1.6 0.00 0.00 0.00 75 1007.2
20260505203926 28 182 0.0 3.2 0.00 0.00 0.00 75 1007.3
20260505203426 28 283 0.0 6.4 0.00 0.00 0.00 75 1007.2
20260505202926 28 227 1.6 3.2 0.00 0.00 0.00 74 1007.4
20260505202427 28 217 1.6 3.2 0.00 0.00 0.00 74 1007.5
20260505201926 28 217 1.6 3.2 0.00 0.00 0.00 75 1007.6
20260505201427 28 218 0.0 3.2 0.00 0.00 0.00 75 1007.7
20260505200927 28 257 0.0 3.2 0.00 0.00 0.00 76 1007.8
20260505200426 28 112 1.6 6.4 0.00 0.00 0.00 75 1007.8
20260505195929 28 167 0.0 6.4 0.00 0.00 0.00 75 1007.9
20260505195426 28 167 1.6 3.2 0.00 0.00 0.00 75 1007.9
20260505194926 28 148 1.6 3.2 0.00 0.00 0.00 76 1008.0
20260505194427 28 293 0.0 3.2 0.00 0.00 0.00 77 1008.1
20260505193927 28 293 0.0 9.7 0.00 0.00 0.00 75 1008.0
20260505193427 28 186 1.6 3.2 0.00 0.00 0.00 76 1008.1
20260505192926 28 148 0.0 1.6 0.00 0.00 0.00 77 1008.3
20260505192429 28 148 0.0 3.2 0.00 0.00 0.00 77 1008.3
20260505191927 28 128 1.6 3.2 0.00 0.00 0.00 77 1008.2
20260505191430 27 172 0.0 3.2 0.00 0.00 0.00 77 1008.2
20260505190926 27 173 1.6 1.6 0.00 0.00 0.00 77 1008.3
20260505190426 27 170 0.0 3.2 0.00 0.00 0.00 75 1008.3
20260505185926 27 170 0.0 6.4 0.00 0.00 0.00 75 1008.3
20260505185426 27 268 0.0 4.8 0.00 0.00 0.00 77 1008.4
20260505184926 27 289 3.2 3.2 0.00 0.00 0.00 78 1008.5
20260505184427 27 185 1.6 3.2 0.00 0.00 0.00 77 1008.5
20260505183927 27 184 0.0 4.8 0.00 0.00 0.00 77 1008.5
20260505183427 27 175 1.6 6.4 0.00 0.00 0.00 77 1008.6
20260505182926 27 184 1.6 6.4 0.00 0.00 0.00 78 1008.6
20260505182426 27 185 0.0 3.2 0.00 0.00 0.00 79 1008.7
20260505181926 27 175 0.0 3.2 0.00 0.00 0.00 79 1008.8
20260505181426 27 176 1.6 6.4 0.00 0.00 0.00 79 1008.7
20260505180930 26 190 1.6 3.2 0.00 0.00 0.00 80 1008.7
20260505180426 26 185 1.6 3.2 0.00 0.00 0.00 80 1008.7
20260505175926 26 196 1.6 4.8 0.00 0.00 0.00 80 1008.9
20260505175427 26 215 0.0 3.2 0.00 0.00 0.00 79 1008.9
20260505174930 26 215 0.0 3.2 0.00 0.00 0.00 80 1008.8
20260505174430 26 215 1.6 4.8 0.00 0.00 0.00 80 1008.9
20260505173927 26 215 1.6 6.4 0.00 0.00 0.00 80 1009.0
20260505173427 26 192 0.0 1.6 0.00 0.00 0.00 81 1008.9
20260505172929 26 192 1.6 1.6 0.00 0.00 0.00 80 1009.0
20260505172427 26 192 0.0 1.6 0.00 0.00 0.00 81 1009.0
20260505171926 26 192 3.2 3.2 0.00 0.00 0.00 82 1009.0
20260505171426 26 355 0.0 6.4 0.00 0.00 0.00 83 1009.0
20260505170929 26 198 0.0 3.2 0.00 0.00 0.00 83 1009.1
20260505170427 25 182 0.0 3.2 0.00 0.00 0.00 84 1009.2
20260505165927 25 179 1.6 4.8 0.00 0.00 0.00 84 1009.3
20260505165427 25 61 3.2 4.8 0.00 0.00 0.00 84 1009.3
20260505164926 25 303 0.0 3.2 0.00 0.00 0.00 84 1009.3
20260505164426 25 303 1.6 3.2 0.00 0.00 0.00 84 1009.3
20260505163929 25 309 0.0 0.0 0.00 0.00 0.00 84 1009.2
20260505163427 25 309 0.0 1.6 0.00 0.00 0.00 84 1009.3
20260505162926 25 309 0.0 3.2 0.00 0.00 0.00 83 1009.2
20260505162428 25 251 0.0 3.2 0.00 0.00 0.00 84 1009.1
20260505161930 25 251 0.0 3.2 0.00 0.00 0.00 84 1009.2
20260505161427 25 251 0.0 3.2 0.00 0.00 0.00 84 1009.2
20260505160926 25 264 1.6 3.2 0.00 0.00 0.00 84 1009.1
20260505160427 25 237 1.6 3.2 0.00 0.00 0.00 84 1009.2
20260505152930 25 304 0.0 1.6 0.00 0.00 0.00 85 1009.0
20260505152426 25 304 1.6 3.2 0.00 0.00 0.00 85 1009.0
20260505151927 25 222 0.0 1.6 0.00 0.00 0.00 84 1008.9
20260505151429 25 222 0.0 1.6 0.00 0.00 0.00 84 1008.9
20260505150927 25 222 0.0 1.6 0.00 0.00 0.00 85 1008.9
20260505150426 25 222 0.0 1.6 0.00 0.00 0.00 85 1008.9
20260505140426 23 119 1.6 3.2 0.00 0.00 0.00 87 1008.4
20260505124926 22 88 1.6 1.6 0.00 0.00 0.00 90 1008.1
20260505124426 22 88 0.0 0.0 0.00 0.00 0.00 90 1008.1
20260505123927 22 88 0.0 0.0 0.00 0.00 0.00 90 1008.2
20260505123427 22 88 0.0 0.0 0.00 0.00 0.00 90 1008.4
20260505122926 22 88 0.0 0.0 0.00 0.00 0.00 90 1008.0
20260505122427 22 88 0.0 0.0 0.00 0.00 0.00 90 1008.1
20260505121926 22 88 0.0 0.0 0.00 0.00 0.00 90 1008.1
20260505121427 22 88 0.0 0.0 0.00 0.00 0.00 90 1008.1
20260505120926 22 88 0.0 0.0 0.00 0.00 0.00 90 1008.0
20260505120426 22 88 0.0 0.0 0.00 0.00 0.00 90 1007.9
20260505115930 22 88 0.0 0.0 0.00 0.00 0.00 90 1007.9
20260505115426 22 88 0.0 0.0 0.00 0.00 0.00 90 1007.8
20260505114929 22 88 0.0 0.0 0.00 0.00 0.00 90 1007.8
20260505114426 22 88 0.0 0.0 0.00 0.00 0.00 90 1007.9
20260505113926 22 88 0.0 0.0 0.00 0.00 0.00 90 1008.2
20260505113429 22 88 0.0 0.0 0.00 0.00 0.00 90 1008.3
20260505112926 22 88 0.0 0.0 0.00 0.00 0.00 90 1008.1
20260505112427 22 88 0.0 0.0 0.00 0.00 0.00 90 1007.9
20260505111926 22 88 0.0 0.0 0.00 0.00 0.00 90 1007.9
20260505111429 22 88 0.0 1.6 0.00 0.00 0.00 90 1007.9
20260505110927 22 88 0.0 1.6 0.00 0.00 0.00 90 1007.9
20260505110429 22 88 0.0 0.0 0.00 0.00 0.00 90 1007.8
20260505101926 21 67 0.0 0.0 0.00 0.00 0.00 89 1008.0
20260505101426 21 67 0.0 0.0 0.00 0.00 0.00 89 1008.1
20260505100926 21 67 0.0 0.0 0.00 0.00 0.00 89 1008.2
20260505100427 21 67 0.0 0.0 0.00 0.00 0.00 89 1008.3
20260505095927 22 67 0.0 0.0 0.00 0.00 0.00 88 1008.4
20260505095426 22 67 0.0 0.0 0.00 0.00 0.00 88 1008.3
20260505094931 21 67 0.0 0.0 0.00 0.00 0.00 88 1008.2
20260505094426 22 67 0.0 0.0 0.00 0.00 0.00 88 1008.1
20260505093926 22 66 0.0 1.6 0.00 0.00 0.00 88 1008.3
20260505093426 22 66 0.0 1.6 0.00 0.00 0.00 88 1008.4
20260505092926 22 66 0.0 1.6 0.00 0.00 0.00 88 1008.4
20260505092429 22 66 0.0 1.6 0.00 0.00 0.00 88 1008.6
20260505091927 22 66 0.0 1.6 0.00 0.00 0.00 88 1008.5
20260505091427 21 66 0.0 0.0 0.00 0.00 0.00 88 1008.4
20260505090926 21 66 0.0 0.0 0.00 0.00 0.00 88 1008.3
20260505090426 21 66 0.0 1.6 0.00 0.00 0.00 88 1008.4
20260505085929 21 66 0.0 1.6 0.00 0.00 0.00 88 1008.2
20260505085426 21 66 0.0 1.6 0.00 0.00 0.00 87 1008.4
20260505084926 21 66 0.0 0.0 0.00 0.00 0.00 87 1008.4
20260505084427 21 66 0.0 0.0 0.00 0.00 0.00 87 1008.5
20260505083930 21 66 0.0 1.6 0.00 0.00 0.00 87 1008.4
20260505083427 22 66 0.0 1.6 0.00 0.00 0.00 87 1008.6
20260505082926 21 66 0.0 0.0 0.00 0.00 0.00 87 1008.7
20260505082427 22 66 0.0 1.6 0.00 0.00 0.00 87 1008.7
20260505081926 22 66 0.0 1.6 0.00 0.00 0.00 87 1008.8
20260505081426 22 66 0.0 1.6 0.00 0.00 0.00 86 1008.8
20260505080927 22 66 0.0 1.6 0.00 0.00 0.00 86 1008.8
20260505080426 22 66 0.0 1.6 0.00 0.00 0.00 86 1008.9
20260505075926 22 66 0.0 0.0 0.00 0.00 0.00 86 1009.0
20260505075429 22 66 0.0 0.0 0.00 0.00 0.00 86 1009.0
20260505074926 22 66 0.0 0.0 0.00 0.00 0.00 86 1009.0
20260505074430 22 66 0.0 1.6 0.00 0.00 0.00 85 1009.0
20260505073926 22 66 0.0 0.0 0.00 0.00 0.00 85 1009.0
20260505073427 22 66 0.0 0.0 0.00 0.00 0.00 85 1009.0
20260505072929 22 66 0.0 0.0 0.00 0.00 0.00 85 1009.1
20260505072426 22 66 0.0 1.6 0.00 0.00 0.00 85 1009.2
20260505071927 22 66 1.6 1.6 0.00 0.00 0.00 85 1009.3
20260505071430 22 66 0.0 1.6 0.00 0.00 0.00 84 1009.4
20260505070927 22 54 0.0 1.6 0.00 0.00 0.00 84 1009.4
20260505070426 22 47 0.0 3.2 0.00 0.00 0.00 84 1009.5
20260505065926 22 203 0.0 3.2 0.00 0.00 0.00 84 1009.5
20260505065426 22 203 0.0 1.6 0.00 0.00 0.00 84 1009.5
20260505064929 22 203 0.0 1.6 0.00 0.00 0.00 84 1009.4
20260505064427 22 203 0.0 3.2 0.00 0.00 0.00 84 1009.4
20260505063927 22 203 0.0 1.6 0.00 0.00 0.00 83 1009.5
20260505063426 22 203 0.0 1.6 0.00 0.00 0.00 83 1009.5
20260505062926 22 203 0.0 1.6 0.00 0.00 0.00 83 1009.6
20260505062429 22 203 0.0 1.6 0.00 0.00 0.00 83 1009.8
20260505061926 22 203 0.0 1.6 0.00 0.00 0.00 83 1009.9
20260505061427 22 203 0.0 1.6 0.00 0.00 0.00 82 1010.0
20260505060926 22 203 0.0 1.6 0.00 0.00 0.00 82 1010.0
20260505060426 22 203 0.0 1.6 0.00 0.00 0.00 82 1009.9
20260505055926 22 203 0.0 3.2 0.00 0.00 0.00 82 1010.0
20260505055426 22 203 0.0 1.6 0.00 0.00 0.00 82 1009.9
20260505054927 22 203 0.0 1.6 0.00 0.00 0.00 82 1010.0
20260505054429 22 203 0.0 1.6 0.00 0.00 0.00 81 1010.0
20260505053926 22 203 0.0 0.0 0.00 0.00 0.00 81 1010.1
20260505053427 22 203 0.0 1.6 0.00 0.00 0.00 81 1010.1
20260505052926 22 203 0.0 1.6 0.00 0.00 0.00 81 1010.2
20260505052426 22 203 0.0 3.2 0.00 0.00 0.00 81 1010.2
20260505051926 22 203 0.0 1.6 0.00 0.00 0.00 80 1010.2
20260505051430 22 203 0.0 1.6 0.00 0.00 0.00 80 1010.2
20260505050927 22 203 1.6 1.6 0.00 0.00 0.00 80 1010.2
20260505050426 22 203 0.0 1.6 0.00 0.00 0.00 79 1010.3
20260505041426 22 203 0.0 3.2 0.00 0.00 0.00 77 1010.2
20260505040927 22 211 1.6 3.2 0.00 0.00 0.00 77 1010.3
20260505040427 22 211 1.6 3.2 0.00 0.00 0.00 77 1010.5
20260505035926 22 211 0.0 3.2 0.00 0.00 0.00 76 1010.6
20260505035426 23 211 1.6 3.2 0.00 0.00 0.00 76 1010.5
20260505034926 23 211 1.6 3.2 0.00 0.00 0.00 76 1010.5
20260505034426 23 211 0.0 3.2 0.00 0.00 0.00 76 1010.7
20260505033926 23 211 1.6 3.2 0.00 0.00 0.00 75 1010.9
20260505033429 23 211 0.0 3.2 0.00 0.00 0.00 75 1011.0
20260505032927 23 211 1.6 4.8 0.00 0.00 0.00 75 1010.9
20260505032427 23 211 1.6 4.8 0.00 0.00 0.00 75 1010.8
20260505031927 23 211 0.0 3.2 0.00 0.00 0.00 75 1010.7
20260505031426 23 213 1.6 3.2 0.00 0.00 0.00 74 1010.7
20260505030929 23 213 1.6 3.2 0.00 0.00 0.00 74 1010.6
20260505030426 23 216 1.6 3.2 0.00 0.00 0.00 74 1010.6
20260505025926 23 168 0.0 6.4 0.00 0.00 0.00 74 1010.3
20260505025427 23 180 1.6 3.2 0.00 0.00 0.00 74 1010.5
20260505024926 23 180 1.6 3.2 0.00 0.00 0.00 73 1010.5
20260505024426 23 180 1.6 3.2 0.00 0.00 0.00 73 1010.7
20260505023926 23 180 1.6 3.2 0.00 0.00 0.00 73 1010.6
20260505023429 23 187 1.6 3.2 0.00 0.00 0.00 73 1010.6
20260505022926 23 187 1.6 3.2 0.00 0.00 0.00 72 1010.3
20260505022426 23 169 0.0 3.2 0.00 0.00 0.00 72 1010.3
20260505021927 23 169 1.6 3.2 0.00 0.00 0.00 72 1010.2
20260505021426 23 170 1.6 3.2 0.00 0.00 0.00 72 1010.3
20260505020926 23 170 1.6 3.2 0.00 0.00 0.00 72 1010.5
20260505020426 23 166 1.6 1.6 0.00 0.00 0.00 72 1010.3
20260505015926 23 166 1.6 1.6 0.00 0.00 0.00 72 1010.1
20260505015426 24 166 0.0 3.2 0.00 0.00 0.00 71 1010.1
20260505014926 24 167 3.2 6.4 0.00 0.00 0.00 71 1010.0
20260505014427 24 171 0.0 3.2 0.00 0.00 0.00 71 1010.1
20260505013926 24 172 1.6 3.2 0.00 0.00 0.00 71 1010.1
20260505013426 24 172 1.6 3.2 0.00 0.00 0.00 71 1010.0
20260505012926 24 171 1.6 3.2 0.00 0.00 0.00 71 1009.9
20260505012429 24 171 0.0 3.2 0.00 0.00 0.00 70 1009.9
20260505011929 24 171 1.6 1.6 0.00 0.00 0.00 70 1009.9
20260505011426 24 171 1.6 3.2 0.00 0.00 0.00 70 1010.0
20260505010927 24 171 0.0 3.2 0.00 0.00 0.00 70 1010.0
20260505010429 24 171 0.0 1.6 0.00 0.00 0.00 70 1010.0
20260505005926 24 171 0.0 1.6 0.00 0.00 0.00 70 1009.9
20260505005429 25 171 1.6 3.2 0.00 0.00 0.00 69 1009.9
20260505004926 25 171 0.0 3.2 0.00 0.00 0.00 69 1009.9
20260505004426 25 171 0.0 1.6 0.00 0.00 0.00 69 1009.8
20260505003929 25 171 0.0 1.6 0.00 0.00 0.00 68 1009.8
20260505003431 25 171 0.0 3.2 0.00 0.00 0.00 68 1009.7
20260505002926 25 171 1.6 1.6 0.00 0.00 0.00 68 1009.6
20260505002429 25 171 0.0 1.6 0.00 0.00 0.00 68 1009.7
20260505001930 25 171 0.0 3.2 0.00 0.00 0.00 67 1009.9
20260505001426 25 171 0.0 1.6 0.00 0.00 0.00 67 1009.9
20260505000926 25 171 0.0 3.2 0.00 0.00 0.00 67 1010.0
20260505000428 25 171 0.0 3.2 0.00 0.00 0.00 66 1010.0
20260504235927 25 171 1.6 3.2 0.00 0.00 0.00 66 1010.0
20260504235426 25 173 1.6 3.2 0.00 0.00 0.00 66 1010.0
20260504234926 25 145 0.0 3.2 0.00 0.00 0.00 66 1009.9
20260504234426 25 139 0.0 3.2 0.00 0.00 0.00 65 1009.9
20260504233927 26 173 3.2 3.2 0.00 0.00 0.00 65 1010.1
20260504233429 26 179 1.6 3.2 0.00 0.00 0.00 65 1010.2
20260504232926 26 180 1.6 3.2 0.00 0.00 0.00 65 1010.2
20260504232426 26 180 1.6 3.2 0.00 0.00 0.00 65 1010.1
20260504231926 26 180 3.2 3.2 0.00 0.00 0.00 65 1010.1
20260504231426 26 180 0.0 3.2 0.00 0.00 0.00 64 1010.2
20260504230926 26 180 1.6 3.2 0.00 0.00 0.00 64 1010.3
20260504230427 26 174 1.6 3.2 0.00 0.00 0.00 64 1010.5
20260504225929 26 187 1.6 1.6 0.00 0.00 0.00 65 1010.4
20260504225426 26 187 0.0 3.2 0.00 0.00 0.00 63 1010.4
20260504224929 26 189 1.6 3.2 0.00 0.00 0.00 63 1010.4
20260504224429 26 178 1.6 3.2 0.00 0.00 0.00 63 1010.5
20260504223926 26 178 0.0 6.4 0.00 0.00 0.00 62 1010.6
20260504223427 26 197 0.0 3.2 0.00 0.00 0.00 62 1010.6
20260504222926 26 197 1.6 3.2 0.00 0.00 0.00 61 1010.6
20260504222426 26 197 1.6 3.2 0.00 0.00 0.00 60 1010.6
20260504221926 26 198 0.0 3.2 0.00 0.00 0.00 60 1010.7
20260504221429 27 197 1.6 3.2 0.00 0.00 0.00 61 1010.7
20260504220926 27 197 1.6 3.2 0.00 0.00 0.00 59 1010.8
20260504220426 27 197 1.6 3.2 0.00 0.00 0.00 58 1010.8
20260504215926 27 197 1.6 3.2 0.00 0.00 0.00 59 1010.8
20260504215427 27 198 0.0 1.6 0.00 0.00 0.00 58 1010.9
20260504214926 27 198 0.0 3.2 0.00 0.00 0.00 58 1011.0
20260504214426 27 229 0.0 3.2 0.00 0.00 0.00 58 1011.0
20260504213926 27 220 1.6 3.2 0.00 0.00 0.00 58 1010.9
20260504213426 27 220 1.6 3.2 0.00 0.00 0.00 57 1011.0
20260504212927 27 221 1.6 1.6 0.00 0.00 0.00 56 1011.2